Year,Month,Day,Hour,Minute,Value (Times are PST for temperature in C)
2010,08,23,00,00,13.30
2010,08,23,00,01,13.30
2010,08,23,00,02,13.30
2010,08,23,00,03,13.20
2010,08,23,00,04,13.20
2010,08,23,00,05,13.20
2010,08,23,00,06,13.20
2010,08,23,00,07,13.30
2010,08,23,00,08,13.30
2010,08,23,00,09,13.30
2010,08,23,00,10,13.20
2010,08,23,00,11,13.20
2010,08,23,00,12,13.20
2010,08,23,00,13,13.20
2010,08,23,00,14,13.20
2010,08,23,00,15,13.20
2010,08,23,00,16,13.20
2010,08,23,00,17,13.20
2010,08,23,00,18,13.20
2010,08,23,00,19,13.10
2010,08,23,00,20,13.10
2010,08,23,00,21,13.10
2010,08,23,00,22,13.10
2010,08,23,00,23,13.10
2010,08,23,00,24,13.10
2010,08,23,00,25,13.10
2010,08,23,00,26,13.10
2010,08,23,00,27,13.10
2010,08,23,00,28,13.10
2010,08,23,00,29,13.10
2010,08,23,00,30,13.10
2010,08,23,00,31,13.10
2010,08,23,00,32,13.10
2010,08,23,00,33,13.10
2010,08,23,00,34,13.10
2010,08,23,00,35,13.10
2010,08,23,00,36,13.10
2010,08,23,00,37,13.00
2010,08,23,00,38,13.10
2010,08,23,00,39,13.10
2010,08,23,00,40,13.10
2010,08,23,00,41,13.10
2010,08,23,00,42,13.10
2010,08,23,00,43,13.10
2010,08,23,00,44,13.10
2010,08,23,00,45,13.10
2010,08,23,00,46,13.10
2010,08,23,00,47,13.10
2010,08,23,00,48,13.10
2010,08,23,00,49,13.10
2010,08,23,00,50,13.10
2010,08,23,00,51,13.10
2010,08,23,00,52,13.10
2010,08,23,00,53,13.10
2010,08,23,00,54,13.10
2010,08,23,00,55,13.10
2010,08,23,00,56,13.10
2010,08,23,00,57,13.10
2010,08,23,00,58,13.00
2010,08,23,00,59,13.00
2010,08,23,01,00,13.00
2010,08,23,01,01,12.90
2010,08,23,01,02,12.90
2010,08,23,01,03,12.90
2010,08,23,01,04,12.90
2010,08,23,01,05,12.90
2010,08,23,01,06,12.90
2010,08,23,01,07,12.90
2010,08,23,01,08,12.90
2010,08,23,01,09,12.90
2010,08,23,01,10,12.90
2010,08,23,01,11,12.90
2010,08,23,01,12,12.80
2010,08,23,01,13,12.80
2010,08,23,01,14,12.80
2010,08,23,01,15,12.70
2010,08,23,01,16,12.70
2010,08,23,01,17,12.70
2010,08,23,01,18,12.70
2010,08,23,01,19,12.60
2010,08,23,01,20,12.60
2010,08,23,01,21,12.60
2010,08,23,01,22,12.60
2010,08,23,01,23,12.60
2010,08,23,01,24,12.60
2010,08,23,01,25,12.50
2010,08,23,01,26,12.50
2010,08,23,01,27,12.50
2010,08,23,01,28,12.40
2010,08,23,01,29,12.40
2010,08,23,01,30,12.40
2010,08,23,01,31,12.40
2010,08,23,01,32,12.40
2010,08,23,01,33,12.40
2010,08,23,01,34,12.40
2010,08,23,01,35,12.30
2010,08,23,01,36,12.30
2010,08,23,01,37,12.30
2010,08,23,01,38,12.30
2010,08,23,01,39,12.30
2010,08,23,01,40,12.30
2010,08,23,01,41,12.30
2010,08,23,01,42,12.30
2010,08,23,01,43,12.20
2010,08,23,01,44,12.20
2010,08,23,01,45,12.20
2010,08,23,01,46,12.20
2010,08,23,01,47,12.20
2010,08,23,01,48,12.20
2010,08,23,01,49,12.20
2010,08,23,01,50,12.20
2010,08,23,01,51,12.20
2010,08,23,01,52,12.20
2010,08,23,01,53,12.20
2010,08,23,01,54,12.20
2010,08,23,01,55,12.20
2010,08,23,01,56,12.20
2010,08,23,01,57,12.20
2010,08,23,01,58,12.20
2010,08,23,01,59,12.20
2010,08,23,02,00,12.20
2010,08,23,02,01,12.20
2010,08,23,02,02,12.20
2010,08,23,02,03,12.20
2010,08,23,02,04,12.20
2010,08,23,02,05,12.20
2010,08,23,02,06,12.20
2010,08,23,02,07,12.20
2010,08,23,02,08,12.20
2010,08,23,02,09,12.10
2010,08,23,02,10,12.10
2010,08,23,02,11,12.10
2010,08,23,02,12,12.10
2010,08,23,02,13,12.10
2010,08,23,02,14,12.10
2010,08,23,02,15,12.10
2010,08,23,02,16,12.10
2010,08,23,02,17,12.10
2010,08,23,02,18,12.00
2010,08,23,02,19,12.00
2010,08,23,02,20,12.00
2010,08,23,02,21,12.00
2010,08,23,02,22,11.90
2010,08,23,02,23,11.90
2010,08,23,02,24,11.90
2010,08,23,02,25,11.90
2010,08,23,02,26,11.90
2010,08,23,02,27,11.90
2010,08,23,02,28,11.80
2010,08,23,02,29,11.80
2010,08,23,02,30,11.80
2010,08,23,02,31,11.80
2010,08,23,02,32,11.80
2010,08,23,02,33,11.80
2010,08,23,02,34,11.80
2010,08,23,02,35,11.70
2010,08,23,02,36,11.70
2010,08,23,02,37,11.70
2010,08,23,02,38,11.70
2010,08,23,02,39,11.70
2010,08,23,02,40,11.70
2010,08,23,02,41,11.70
2010,08,23,02,42,11.60
2010,08,23,02,43,11.60
2010,08,23,02,44,11.60
2010,08,23,02,45,11.60
2010,08,23,02,46,11.60
2010,08,23,02,47,11.60
2010,08,23,02,48,11.60
2010,08,23,02,49,11.50
2010,08,23,02,50,11.50
2010,08,23,02,51,11.50
2010,08,23,02,52,11.60
2010,08,23,02,53,11.60
2010,08,23,02,54,11.60
2010,08,23,02,55,11.60
2010,08,23,02,56,11.60
2010,08,23,02,57,11.60
2010,08,23,02,58,11.60
2010,08,23,02,59,11.60
2010,08,23,03,00,11.60
2010,08,23,03,01,11.60
2010,08,23,03,02,11.60
2010,08,23,03,03,11.60
2010,08,23,03,04,11.60
2010,08,23,03,05,11.60
2010,08,23,03,06,11.50
2010,08,23,03,07,11.50
2010,08,23,03,08,11.50
2010,08,23,03,09,11.50
2010,08,23,03,10,11.40
2010,08,23,03,11,11.40
2010,08,23,03,12,11.40
2010,08,23,03,13,11.40
2010,08,23,03,14,11.40
2010,08,23,03,15,11.40
2010,08,23,03,16,11.40
2010,08,23,03,17,11.40
2010,08,23,03,18,11.40
2010,08,23,03,19,11.40
2010,08,23,03,20,11.40
2010,08,23,03,21,11.40
2010,08,23,03,22,11.40
2010,08,23,03,23,11.40
2010,08,23,03,24,11.40
2010,08,23,03,25,11.40
2010,08,23,03,26,11.40
2010,08,23,03,27,11.40
2010,08,23,03,28,11.40
2010,08,23,03,29,11.40
2010,08,23,03,30,11.40
2010,08,23,03,31,11.40
2010,08,23,03,32,11.40
2010,08,23,03,33,11.40
2010,08,23,03,34,11.40
2010,08,23,03,35,11.40
2010,08,23,03,36,11.40
2010,08,23,03,37,11.40
2010,08,23,03,38,11.40
2010,08,23,03,39,11.40
2010,08,23,03,40,11.40
2010,08,23,03,41,11.40
2010,08,23,03,42,11.40
2010,08,23,03,43,11.30
2010,08,23,03,44,11.30
2010,08,23,03,45,11.30
2010,08,23,03,46,11.30
2010,08,23,03,47,11.30
2010,08,23,03,48,11.30
2010,08,23,03,49,11.30
2010,08,23,03,50,11.30
2010,08,23,03,51,11.30
2010,08,23,03,52,11.30
2010,08,23,03,53,11.30
2010,08,23,03,54,11.30
2010,08,23,03,55,11.30
2010,08,23,03,56,11.30
2010,08,23,03,57,11.30
2010,08,23,03,58,11.30
2010,08,23,03,59,11.30
2010,08,23,04,00,11.30
2010,08,23,04,01,11.30
2010,08,23,04,02,11.30
2010,08,23,04,03,11.30
2010,08,23,04,04,11.30
2010,08,23,04,05,11.30
2010,08,23,04,06,11.30
2010,08,23,04,07,11.30
2010,08,23,04,08,11.30
2010,08,23,04,09,11.30
2010,08,23,04,10,11.30
2010,08,23,04,11,11.30
2010,08,23,04,12,11.30
2010,08,23,04,13,11.30
2010,08,23,04,14,11.40
2010,08,23,04,15,11.40
2010,08,23,04,16,11.40
2010,08,23,04,17,11.50
2010,08,23,04,18,11.50
2010,08,23,04,19,11.50
2010,08,23,04,20,11.50
2010,08,23,04,21,11.60
2010,08,23,04,22,11.70
2010,08,23,04,23,11.70
2010,08,23,04,24,11.70
2010,08,23,04,25,11.70
2010,08,23,04,26,11.70
2010,08,23,04,27,11.70
2010,08,23,04,28,11.70
2010,08,23,04,29,11.70
2010,08,23,04,30,11.70
2010,08,23,04,31,11.70
2010,08,23,04,32,11.70
2010,08,23,04,33,11.70
2010,08,23,04,34,11.70
2010,08,23,04,35,11.60
2010,08,23,04,36,11.60
2010,08,23,04,37,11.60
2010,08,23,04,38,11.60
2010,08,23,04,39,11.60
2010,08,23,04,40,11.60
2010,08,23,04,41,11.60
2010,08,23,04,42,11.60
2010,08,23,04,43,11.60
2010,08,23,04,44,11.60
2010,08,23,04,45,11.60
2010,08,23,04,46,11.60
2010,08,23,04,47,11.60
2010,08,23,04,48,11.60
2010,08,23,04,49,11.60
2010,08,23,04,50,11.60
2010,08,23,04,51,11.60
2010,08,23,04,52,11.60
2010,08,23,04,53,11.60
2010,08,23,04,54,11.50
2010,08,23,04,55,11.50
2010,08,23,04,56,11.50
2010,08,23,04,57,11.50
2010,08,23,04,58,11.50
2010,08,23,04,59,11.50
2010,08,23,05,00,11.50
2010,08,23,05,01,11.50
2010,08,23,05,02,11.50
2010,08,23,05,03,11.40
2010,08,23,05,04,11.40
2010,08,23,05,05,11.40
2010,08,23,05,06,11.40
2010,08,23,05,07,11.40
2010,08,23,05,08,11.40
2010,08,23,05,09,11.30
2010,08,23,05,10,11.30
2010,08,23,05,11,11.30
2010,08,23,05,12,11.30
2010,08,23,05,13,11.20
2010,08,23,05,14,11.20
2010,08,23,05,15,11.20
2010,08,23,05,16,11.20
2010,08,23,05,17,11.20
2010,08,23,05,18,11.20
2010,08,23,05,19,11.20
2010,08,23,05,20,11.20
2010,08,23,05,21,11.20
2010,08,23,05,22,11.20
2010,08,23,05,23,11.20
2010,08,23,05,24,11.20
2010,08,23,05,25,11.20
2010,08,23,05,26,11.20
2010,08,23,05,27,11.20
2010,08,23,05,28,11.20
2010,08,23,05,29,11.20
2010,08,23,05,30,11.20
2010,08,23,05,31,11.20
2010,08,23,05,32,11.20
2010,08,23,05,33,11.20
2010,08,23,05,34,11.20
2010,08,23,05,35,11.20
2010,08,23,05,36,11.20
2010,08,23,05,37,11.20
2010,08,23,05,38,11.20
2010,08,23,05,39,11.20
2010,08,23,05,40,11.10
2010,08,23,05,41,11.20
2010,08,23,05,42,11.10
2010,08,23,05,43,11.10
2010,08,23,05,44,11.10
2010,08,23,05,45,11.10
2010,08,23,05,46,11.10
2010,08,23,05,47,11.10
2010,08,23,05,48,11.10
2010,08,23,05,49,11.10
2010,08,23,05,50,11.10
2010,08,23,05,51,11.10
2010,08,23,05,52,11.10
2010,08,23,05,53,11.10
2010,08,23,05,54,11.10
2010,08,23,05,55,11.10
2010,08,23,05,56,11.10
2010,08,23,05,57,11.10
2010,08,23,05,58,11.10
2010,08,23,05,59,11.10
2010,08,23,06,00,11.10
2010,08,23,06,01,11.10
2010,08,23,06,02,11.10
2010,08,23,06,03,11.10
2010,08,23,06,04,11.10
2010,08,23,06,05,11.10
2010,08,23,06,06,11.10
2010,08,23,06,07,11.10
2010,08,23,06,08,11.10
2010,08,23,06,09,11.10
2010,08,23,06,10,11.10
2010,08,23,06,11,11.10
2010,08,23,06,12,11.10
2010,08,23,06,13,11.10
2010,08,23,06,14,11.10
2010,08,23,06,15,11.10
2010,08,23,06,16,11.10
2010,08,23,06,17,11.10
2010,08,23,06,18,11.10
2010,08,23,06,19,11.10
2010,08,23,06,20,11.10
2010,08,23,06,21,11.10
2010,08,23,06,22,11.10
2010,08,23,06,23,11.00
2010,08,23,06,24,11.00
2010,08,23,06,25,11.00
2010,08,23,06,26,11.00
2010,08,23,06,27,11.00
2010,08,23,06,28,10.90
2010,08,23,06,29,10.90
2010,08,23,06,30,10.90
2010,08,23,06,31,10.90
2010,08,23,06,32,10.90
2010,08,23,06,33,10.90
2010,08,23,06,34,10.90
2010,08,23,06,35,10.90
2010,08,23,06,36,10.90
2010,08,23,06,37,10.90
2010,08,23,06,38,10.90
2010,08,23,06,39,10.90
2010,08,23,06,40,10.90
2010,08,23,06,41,10.90
2010,08,23,06,42,10.90
2010,08,23,06,43,10.80
2010,08,23,06,44,10.80
2010,08,23,06,45,10.80
2010,08,23,06,46,10.80
2010,08,23,06,47,10.80
2010,08,23,06,48,10.80
2010,08,23,06,49,10.80
2010,08,23,06,50,10.80
2010,08,23,06,51,10.80
2010,08,23,06,52,10.80
2010,08,23,06,53,10.80
2010,08,23,06,54,10.80
2010,08,23,06,55,10.80
2010,08,23,06,56,10.80
2010,08,23,06,57,10.80
2010,08,23,06,58,10.80
2010,08,23,06,59,10.80
2010,08,23,07,00,10.80
2010,08,23,07,01,10.80
2010,08,23,07,02,10.80
2010,08,23,07,03,10.80
2010,08,23,07,04,10.80
2010,08,23,07,05,10.80
2010,08,23,07,06,10.80
2010,08,23,07,07,10.80
2010,08,23,07,08,10.80
2010,08,23,07,09,10.80
2010,08,23,07,10,10.80
2010,08,23,07,11,10.80
2010,08,23,07,12,10.80
2010,08,23,07,13,10.80
2010,08,23,07,14,10.80
2010,08,23,07,15,10.80
2010,08,23,07,16,10.70
2010,08,23,07,17,10.80
2010,08,23,07,18,10.70
2010,08,23,07,19,10.70
2010,08,23,07,20,10.80
2010,08,23,07,21,10.80
2010,08,23,07,22,10.80
2010,08,23,07,23,10.80
2010,08,23,07,24,10.80
2010,08,23,07,25,10.80
2010,08,23,07,26,10.80
2010,08,23,07,27,10.80
2010,08,23,07,28,10.80
2010,08,23,07,29,10.80
2010,08,23,07,30,10.80
2010,08,23,07,31,10.80
2010,08,23,07,32,10.80
2010,08,23,07,33,10.80
2010,08,23,07,34,10.80
2010,08,23,07,35,10.90
2010,08,23,07,36,10.90
2010,08,23,07,37,10.90
2010,08,23,07,38,10.90
2010,08,23,07,39,10.90
2010,08,23,07,40,10.90
2010,08,23,07,41,10.90
2010,08,23,07,42,11.00
2010,08,23,07,43,11.00
2010,08,23,07,44,11.00
2010,08,23,07,45,11.00
2010,08,23,07,46,11.10
2010,08,23,07,47,11.10
2010,08,23,07,48,11.10
2010,08,23,07,49,11.10
2010,08,23,07,50,11.10
2010,08,23,07,51,11.10
2010,08,23,07,52,11.10
2010,08,23,07,53,11.20
2010,08,23,07,54,11.20
2010,08,23,07,55,11.20
2010,08,23,07,56,11.30
2010,08,23,07,57,11.30
2010,08,23,07,58,11.30
2010,08,23,07,59,11.30
2010,08,23,08,00,11.40
2010,08,23,08,01,11.40
2010,08,23,08,02,11.40
2010,08,23,08,03,11.50
2010,08,23,08,04,11.60
2010,08,23,08,05,11.60
2010,08,23,08,06,11.60
2010,08,23,08,07,11.60
2010,08,23,08,08,11.70
2010,08,23,08,09,11.70
2010,08,23,08,10,11.70
2010,08,23,08,11,11.70
2010,08,23,08,12,11.80
2010,08,23,08,13,11.80
2010,08,23,08,14,11.80
2010,08,23,08,15,11.80
2010,08,23,08,16,11.90
2010,08,23,08,17,11.90
2010,08,23,08,18,11.90
2010,08,23,08,19,12.00
2010,08,23,08,20,12.00
2010,08,23,08,21,12.00
2010,08,23,08,22,12.10
2010,08,23,08,23,12.10
2010,08,23,08,24,12.10
2010,08,23,08,25,12.20
2010,08,23,08,26,12.20
2010,08,23,08,27,12.20
2010,08,23,08,28,12.20
2010,08,23,08,29,12.30
2010,08,23,08,30,12.30
2010,08,23,08,31,12.30
2010,08,23,08,32,12.30
2010,08,23,08,33,12.40
2010,08,23,08,34,12.40
2010,08,23,08,35,12.40
2010,08,23,08,36,12.50
2010,08,23,08,37,12.50
2010,08,23,08,38,12.60
2010,08,23,08,39,12.60
2010,08,23,08,40,12.60
2010,08,23,08,41,12.70
2010,08,23,08,42,12.70
2010,08,23,08,43,12.70
2010,08,23,08,44,12.80
2010,08,23,08,45,12.80
2010,08,23,08,46,12.90
2010,08,23,08,47,12.90
2010,08,23,08,48,13.00
2010,08,23,08,49,13.00
2010,08,23,08,50,13.10
2010,08,23,08,51,13.10
2010,08,23,08,52,13.20
2010,08,23,08,53,13.20
2010,08,23,08,54,13.30
2010,08,23,08,55,13.40
2010,08,23,08,56,13.40
2010,08,23,08,57,13.50
2010,08,23,08,58,13.60
2010,08,23,08,59,13.70
2010,08,23,09,00,13.70
2010,08,23,09,01,13.80
2010,08,23,09,02,13.90
2010,08,23,09,03,14.00
2010,08,23,09,04,14.10
2010,08,23,09,05,14.20
2010,08,23,09,06,14.20
2010,08,23,09,07,14.30
2010,08,23,09,08,14.40
2010,08,23,09,09,14.40
2010,08,23,09,10,14.40
2010,08,23,09,11,14.50
2010,08,23,09,12,14.60
2010,08,23,09,13,14.60
2010,08,23,09,14,14.70
2010,08,23,09,15,14.70
2010,08,23,09,16,14.70
2010,08,23,09,17,14.80
2010,08,23,09,18,14.80
2010,08,23,09,19,15.00
2010,08,23,09,20,15.00
2010,08,23,09,21,15.00
2010,08,23,09,22,15.00
2010,08,23,09,23,15.10
2010,08,23,09,24,15.20
2010,08,23,09,25,15.20
2010,08,23,09,26,15.30
2010,08,23,09,27,15.30
2010,08,23,09,28,15.30
2010,08,23,09,29,15.40
2010,08,23,09,30,15.40
2010,08,23,09,31,15.50
2010,08,23,09,32,15.50
2010,08,23,09,33,15.60
2010,08,23,09,34,15.70
2010,08,23,09,35,15.80
2010,08,23,09,36,15.80
2010,08,23,09,37,15.90
2010,08,23,09,38,15.90
2010,08,23,09,39,15.90
2010,08,23,09,40,15.90
2010,08,23,09,41,15.80
2010,08,23,09,42,15.90
2010,08,23,09,43,15.80
2010,08,23,09,44,15.80
2010,08,23,09,45,15.80
2010,08,23,09,46,15.80
2010,08,23,09,47,15.80
2010,08,23,09,48,15.80
2010,08,23,09,49,15.80
2010,08,23,09,50,15.80
2010,08,23,09,51,15.90
2010,08,23,09,52,15.90
2010,08,23,09,53,15.90
2010,08,23,09,54,15.90
2010,08,23,09,55,16.00
2010,08,23,09,56,16.00
2010,08,23,09,57,16.10
2010,08,23,09,58,16.10
2010,08,23,09,59,16.10
2010,08,23,10,00,16.10
2010,08,23,10,01,16.20
2010,08,23,10,02,16.20
2010,08,23,10,03,16.30
2010,08,23,10,04,16.30
2010,08,23,10,05,16.30
2010,08,23,10,06,16.30
2010,08,23,10,07,16.30
2010,08,23,10,08,16.30
2010,08,23,10,09,16.30
2010,08,23,10,10,16.40
2010,08,23,10,11,16.40
2010,08,23,10,12,16.40
2010,08,23,10,13,16.40
2010,08,23,10,14,16.50
2010,08,23,10,15,16.50
2010,08,23,10,16,16.60
2010,08,23,10,17,16.60
2010,08,23,10,18,16.70
2010,08,23,10,19,16.80
2010,08,23,10,20,16.90
2010,08,23,10,21,17.00
2010,08,23,10,22,17.00
2010,08,23,10,23,17.10
2010,08,23,10,24,17.10
2010,08,23,10,25,17.20
2010,08,23,10,26,17.30
2010,08,23,10,27,17.30
2010,08,23,10,28,17.20
2010,08,23,10,29,17.20
2010,08,23,10,30,17.20
2010,08,23,10,31,17.20
2010,08,23,10,32,17.20
2010,08,23,10,33,17.30
2010,08,23,10,34,17.40
2010,08,23,10,35,17.40
2010,08,23,10,36,17.50
2010,08,23,10,37,17.60
2010,08,23,10,38,17.70
2010,08,23,10,39,17.70
2010,08,23,10,40,17.70
2010,08,23,10,41,17.80
2010,08,23,10,42,17.80
2010,08,23,10,43,17.80
2010,08,23,10,44,17.80
2010,08,23,10,45,17.90
2010,08,23,10,46,17.90
2010,08,23,10,47,18.00
2010,08,23,10,48,18.00
2010,08,23,10,49,18.10
2010,08,23,10,50,18.10
2010,08,23,10,51,18.10
2010,08,23,10,52,18.20
2010,08,23,10,53,18.20
2010,08,23,10,54,18.30
2010,08,23,10,55,18.30
2010,08,23,10,56,18.30
2010,08,23,10,57,18.30
2010,08,23,10,58,18.30
2010,08,23,10,59,18.30
2010,08,23,11,00,18.30
2010,08,23,11,01,18.40
2010,08,23,11,02,18.40
2010,08,23,11,03,18.40
2010,08,23,11,04,18.40
2010,08,23,11,05,18.40
2010,08,23,11,06,18.40
2010,08,23,11,07,18.30
2010,08,23,11,08,18.20
2010,08,23,11,09,18.10
2010,08,23,11,10,18.10
2010,08,23,11,11,18.00
2010,08,23,11,12,18.00
2010,08,23,11,13,18.00
2010,08,23,11,14,18.00
2010,08,23,11,15,18.00
2010,08,23,11,16,18.00
2010,08,23,11,17,18.10
2010,08,23,11,18,18.10
2010,08,23,11,19,18.10
2010,08,23,11,20,18.10
2010,08,23,11,21,18.10
2010,08,23,11,22,18.10
2010,08,23,11,23,18.20
2010,08,23,11,24,18.20
2010,08,23,11,25,18.20
2010,08,23,11,26,18.30
2010,08,23,11,27,18.30
2010,08,23,11,28,18.30
2010,08,23,11,29,18.30
2010,08,23,11,30,18.30
2010,08,23,11,31,18.30
2010,08,23,11,32,18.40
2010,08,23,11,33,18.50
2010,08,23,11,34,18.50
2010,08,23,11,35,18.60
2010,08,23,11,36,18.60
2010,08,23,11,37,18.60
2010,08,23,11,38,18.50
2010,08,23,11,39,18.40
2010,08,23,11,40,18.40
2010,08,23,11,41,18.40
2010,08,23,11,42,18.40
2010,08,23,11,43,18.40
2010,08,23,11,44,18.40
2010,08,23,11,45,18.40
2010,08,23,11,46,18.50
2010,08,23,11,47,18.50
2010,08,23,11,48,18.60
2010,08,23,11,49,18.70
2010,08,23,11,50,18.70
2010,08,23,11,51,18.80
2010,08,23,11,52,18.90
2010,08,23,11,53,18.90
2010,08,23,11,54,18.80
2010,08,23,11,55,18.70
2010,08,23,11,56,18.60
2010,08,23,11,57,18.60
2010,08,23,11,58,18.60
2010,08,23,11,59,18.70
2010,08,23,12,00,18.70
2010,08,23,12,01,18.70
2010,08,23,12,02,18.70
2010,08,23,12,03,18.80
2010,08,23,12,04,18.80
2010,08,23,12,05,18.90
2010,08,23,12,06,18.90
2010,08,23,12,07,19.00
2010,08,23,12,08,18.90
2010,08,23,12,09,19.00
2010,08,23,12,10,19.00
2010,08,23,12,11,19.10
2010,08,23,12,12,19.20
2010,08,23,12,13,19.30
2010,08,23,12,14,19.40
2010,08,23,12,15,19.40
2010,08,23,12,16,19.60
2010,08,23,12,17,19.70
2010,08,23,12,18,19.80
2010,08,23,12,19,19.90
2010,08,23,12,20,20.00
2010,08,23,12,21,20.10
2010,08,23,12,22,20.20
2010,08,23,12,23,20.20
2010,08,23,12,24,20.30
2010,08,23,12,25,20.30
2010,08,23,12,26,20.30
2010,08,23,12,27,20.40
2010,08,23,12,28,20.40
2010,08,23,12,29,20.40
2010,08,23,12,30,20.40
2010,08,23,12,31,20.40
2010,08,23,12,32,20.40
2010,08,23,12,33,20.40
2010,08,23,12,34,20.40
2010,08,23,12,35,20.40
2010,08,23,12,36,20.30
2010,08,23,12,37,20.20
2010,08,23,12,38,20.20
2010,08,23,12,39,20.20
2010,08,23,12,40,20.10
2010,08,23,12,41,20.20
2010,08,23,12,42,20.10
2010,08,23,12,43,20.00
2010,08,23,12,44,20.00
2010,08,23,12,45,19.90
2010,08,23,12,46,19.90
2010,08,23,12,47,19.90
2010,08,23,12,48,20.00
2010,08,23,12,49,20.00
2010,08,23,12,50,20.10
2010,08,23,12,51,20.20
2010,08,23,12,52,20.30
2010,08,23,12,53,20.40
2010,08,23,12,54,20.40
2010,08,23,12,55,20.50
2010,08,23,12,56,20.60
2010,08,23,12,57,20.70
2010,08,23,12,58,20.70
2010,08,23,12,59,20.80
2010,08,23,13,00,20.80
2010,08,23,13,01,20.80
2010,08,23,13,02,20.70
2010,08,23,13,03,20.60
2010,08,23,13,04,20.60
2010,08,23,13,05,20.60
2010,08,23,13,06,20.50
2010,08,23,13,07,20.50
2010,08,23,13,08,20.50
2010,08,23,13,09,20.50
2010,08,23,13,10,20.40
2010,08,23,13,11,20.40
2010,08,23,13,12,20.30
2010,08,23,13,13,20.30
2010,08,23,13,14,20.30
2010,08,23,13,15,20.30
2010,08,23,13,16,20.30
2010,08,23,13,17,20.30
2010,08,23,13,18,20.30
2010,08,23,13,19,20.40
2010,08,23,13,20,20.40
2010,08,23,13,21,20.50
2010,08,23,13,22,20.50
2010,08,23,13,23,20.50
2010,08,23,13,24,20.60
2010,08,23,13,25,20.70
2010,08,23,13,26,20.80
2010,08,23,13,27,20.90
2010,08,23,13,28,21.00
2010,08,23,13,29,21.00
2010,08,23,13,30,21.00
2010,08,23,13,31,21.00
2010,08,23,13,32,21.00
2010,08,23,13,33,21.00
2010,08,23,13,34,20.90
2010,08,23,13,35,20.80
2010,08,23,13,36,20.80
2010,08,23,13,37,20.80
2010,08,23,13,38,20.80
2010,08,23,13,39,20.80
2010,08,23,13,40,20.80
2010,08,23,13,41,20.90
2010,08,23,13,42,20.90
2010,08,23,13,43,21.00
2010,08,23,13,44,21.00
2010,08,23,13,45,21.10
2010,08,23,13,46,21.10
2010,08,23,13,47,21.20
2010,08,23,13,48,21.30
2010,08,23,13,49,21.30
2010,08,23,13,50,21.20
2010,08,23,13,51,21.20
2010,08,23,13,52,21.20
2010,08,23,13,53,21.20
2010,08,23,13,54,21.10
2010,08,23,13,55,21.10
2010,08,23,13,56,21.10
2010,08,23,13,57,21.00
2010,08,23,13,58,21.00
2010,08,23,13,59,21.00
2010,08,23,14,00,21.10
2010,08,23,14,01,21.10
2010,08,23,14,02,21.20
2010,08,23,14,03,21.20
2010,08,23,14,04,21.10
2010,08,23,14,05,21.20
2010,08,23,14,06,21.20
2010,08,23,14,07,21.30
2010,08,23,14,08,21.30
2010,08,23,14,09,21.40
2010,08,23,14,10,21.40
2010,08,23,14,11,21.50
2010,08,23,14,12,21.50
2010,08,23,14,13,21.50
2010,08,23,14,14,21.40
2010,08,23,14,15,21.40
2010,08,23,14,16,21.40
2010,08,23,14,17,21.30
2010,08,23,14,18,21.40
2010,08,23,14,19,21.40
2010,08,23,14,20,21.40
2010,08,23,14,21,21.40
2010,08,23,14,22,21.50
2010,08,23,14,23,21.60
2010,08,23,14,24,21.60
2010,08,23,14,25,21.60
2010,08,23,14,26,21.50
2010,08,23,14,27,21.50
2010,08,23,14,28,21.50
2010,08,23,14,29,21.50
2010,08,23,14,30,21.60
2010,08,23,14,31,21.70
2010,08,23,14,32,21.80
2010,08,23,14,33,21.90
2010,08,23,14,34,22.00
2010,08,23,14,35,22.00
2010,08,23,14,36,22.10
2010,08,23,14,37,22.10
2010,08,23,14,38,22.20
2010,08,23,14,39,22.20
2010,08,23,14,40,22.10
2010,08,23,14,41,22.10
2010,08,23,14,42,21.90
2010,08,23,14,43,21.80
2010,08,23,14,44,21.70
2010,08,23,14,45,21.50
2010,08,23,14,46,21.40
2010,08,23,14,47,21.30
2010,08,23,14,48,21.30
2010,08,23,14,49,21.30
2010,08,23,14,50,21.30
2010,08,23,14,51,21.40
2010,08,23,14,52,21.50
2010,08,23,14,53,21.50
2010,08,23,14,54,21.50
2010,08,23,14,55,21.50
2010,08,23,14,56,21.50
2010,08,23,14,57,21.50
2010,08,23,14,58,21.40
2010,08,23,14,59,21.40
2010,08,23,15,00,21.50
2010,08,23,15,01,21.50
2010,08,23,15,02,21.60
2010,08,23,15,03,21.60
2010,08,23,15,04,21.70
2010,08,23,15,05,21.70
2010,08,23,15,06,21.80
2010,08,23,15,07,21.80
2010,08,23,15,08,21.90
2010,08,23,15,09,22.00
2010,08,23,15,10,22.00
2010,08,23,15,11,22.00
2010,08,23,15,12,21.90
2010,08,23,15,13,21.80
2010,08,23,15,14,21.80
2010,08,23,15,15,21.80
2010,08,23,15,16,21.80
2010,08,23,15,17,21.90
2010,08,23,15,18,22.00
2010,08,23,15,19,22.00
2010,08,23,15,20,22.00
2010,08,23,15,21,22.00
2010,08,23,15,22,22.00
2010,08,23,15,23,21.90
2010,08,23,15,24,21.90
2010,08,23,15,25,21.80
2010,08,23,15,26,21.80
2010,08,23,15,27,21.80
2010,08,23,15,28,21.80
2010,08,23,15,29,21.90
2010,08,23,15,30,22.00
2010,08,23,15,31,22.10
2010,08,23,15,32,22.10
2010,08,23,15,33,22.20
2010,08,23,15,34,22.10
2010,08,23,15,35,22.20
2010,08,23,15,36,22.20
2010,08,23,15,37,22.30
2010,08,23,15,38,22.30
2010,08,23,15,39,22.30
2010,08,23,15,40,22.30
2010,08,23,15,41,22.30
2010,08,23,15,42,22.30
2010,08,23,15,43,22.30
2010,08,23,15,44,22.20
2010,08,23,15,45,22.20
2010,08,23,15,46,22.20
2010,08,23,15,47,22.20
2010,08,23,15,48,22.10
2010,08,23,15,49,22.10
2010,08,23,15,50,22.00
2010,08,23,15,51,21.90
2010,08,23,15,52,21.80
2010,08,23,15,53,21.80
2010,08,23,15,54,21.80
2010,08,23,15,55,21.80
2010,08,23,15,56,21.80
2010,08,23,15,57,21.90
2010,08,23,15,58,22.00
2010,08,23,15,59,22.10
2010,08,23,16,00,22.20
2010,08,23,16,01,22.30
2010,08,23,16,02,22.50
2010,08,23,16,03,22.60
2010,08,23,16,04,22.60
2010,08,23,16,05,22.60
2010,08,23,16,06,22.50
2010,08,23,16,07,22.50
2010,08,23,16,08,22.60
2010,08,23,16,09,22.60
2010,08,23,16,10,22.60
2010,08,23,16,11,22.60
2010,08,23,16,12,22.60
2010,08,23,16,13,22.50
2010,08,23,16,14,22.50
2010,08,23,16,15,22.40
2010,08,23,16,16,22.50
2010,08,23,16,17,22.60
2010,08,23,16,18,22.60
2010,08,23,16,19,22.60
2010,08,23,16,20,22.40
2010,08,23,16,21,22.40
2010,08,23,16,22,22.30
2010,08,23,16,23,22.30
2010,08,23,16,24,22.20
2010,08,23,16,25,22.10
2010,08,23,16,26,22.10
2010,08,23,16,27,22.00
2010,08,23,16,28,21.90
2010,08,23,16,29,21.90
2010,08,23,16,30,22.00
2010,08,23,16,31,22.10
2010,08,23,16,32,22.10
2010,08,23,16,33,22.00
2010,08,23,16,34,22.00
2010,08,23,16,35,22.00
2010,08,23,16,36,22.10
2010,08,23,16,37,22.10
2010,08,23,16,38,22.10
2010,08,23,16,39,22.10
2010,08,23,16,40,22.00
2010,08,23,16,41,21.90
2010,08,23,16,42,21.80
2010,08,23,16,43,21.70
2010,08,23,16,44,21.60
2010,08,23,16,45,21.50
2010,08,23,16,46,21.50
2010,08,23,16,47,21.60
2010,08,23,16,48,21.60
2010,08,23,16,49,21.60
2010,08,23,16,50,21.70
2010,08,23,16,51,21.80
2010,08,23,16,52,21.80
2010,08,23,16,53,21.90
2010,08,23,16,54,22.00
2010,08,23,16,55,22.10
2010,08,23,16,56,22.20
2010,08,23,16,57,22.20
2010,08,23,16,58,22.20
2010,08,23,16,59,22.20
2010,08,23,17,00,22.30
2010,08,23,17,01,22.30
2010,08,23,17,02,22.30
2010,08,23,17,03,22.20
2010,08,23,17,04,22.20
2010,08,23,17,05,22.10
2010,08,23,17,06,22.10
2010,08,23,17,07,22.10
2010,08,23,17,08,22.10
2010,08,23,17,09,22.20
2010,08,23,17,10,22.20
2010,08,23,17,11,22.20
2010,08,23,17,12,22.30
2010,08,23,17,13,22.30
2010,08,23,17,14,22.30
2010,08,23,17,15,22.40
2010,08,23,17,16,22.40
2010,08,23,17,17,22.50
2010,08,23,17,18,22.60
2010,08,23,17,19,22.60